Location: Waverly
(39.3325°N, 76.6061°W)
Time: 19:14:55
(UTC+00:00)

Tiangong - Pass Details

Date: 21 December 2025
Orbit: 378 x 392 km, 41.5° (Epoch: 22 January)

Event Time Altitude Azimuth Distance (km) Brightness Sun altitude
Rises 22:36:19 0° 200° (SSW) 2,247 2.4 -9.4°
Reaches altitude 10° 22:39:32 10° 164° (SSE) 1,393 0.8 -10.0°
Maximum altitude 22:40:37 11° 144° (SE) 1,313 0.4 -10.2°
Drops below altitude 10° 22:41:42 10° 124° (ESE) 1,392 0.4 -10.4°
Enters shadow 22:42:20 - 114° (ESE) 1,504 0.4 -10.5°
